• In Romania
  • List of Countries
  • For 7 days
  • Water Temperature
  • Satellite Maps
  • Weather Map
  • Weather Widgets
  • user-avatar
    Login

    Hourly Weather Modliszow

    Today, 23 October, Tuesday

    Time Temperature Precipitation Wind Pressure Humidity
    00:00 +3°C° 0 mm 3 mps 728 mmHg 89%
    01:00 +3°C° 0 mm 2 mps 728 mmHg 91%
    02:00 +3°C° 0 mm 2 mps 727 mmHg 90%
    03:00 +3°C° 0 mm 2 mps 727 mmHg 89%
    04:00 +2°C° 0 mm 3 mps 726 mmHg 88%
    05:00 +2°C° 0 mm 3 mps 726 mmHg 86%
    06:00 +1°C° 0 mm 4 mps 725 mmHg 85%
    07:00 +2°C° 0 mm 5 mps 724 mmHg 83%
    08:00 +3°C° 0 mm 6 mps 724 mmHg 76%
    09:00 +4°C° 0 mm 7 mps 723 mmHg 70%
    10:00 +5°C° 0 mm 8 mps 722 mmHg 63%
    11:00 +6°C° 0.3 mm 9 mps 721 mmHg 63%
    12:00 +6°C° 0.3 mm 9 mps 720 mmHg 62%
    13:00 +6°C° 0.3 mm 10 mps 719 mmHg 62%
    14:00 +6°C° 0.7 mm 10 mps 718 mmHg 66%
    15:00 +6°C° 0.7 mm 10 mps 717 mmHg 71%
    16:00 +6°C° 0.7 mm 10 mps 716 mmHg 75%
    17:00 +6°C° 0.3 mm 10 mps 716 mmHg 76%
    18:00 +7°C° 0.3 mm 10 mps 715 mmHg 78%
    19:00 +7°C° 0.3 mm 10 mps 715 mmHg 79%
    20:00 +7°C° 0.6 mm 10 mps 714 mmHg 79%
    21:00 +8°C° 0.6 mm 10 mps 714 mmHg 80%
    22:00 +8°C° 0.6 mm 10 mps 714 mmHg 80%
    23:00 +8°C° 1 mm 10 mps 713 mmHg 80%

    Tomorrow, 24 October, Wednesday

    Time Temperature Precipitation Wind Pressure Humidity
    00:00 +8°C° 1 mm 10 mps 713 mmHg 80%
    01:00 +7°C° 1 mm 10 mps 712 mmHg 81%
    02:00 +7°C° 0.7 mm 10 mps 712 mmHg 79%
    03:00 +6°C° 0.7 mm 10 mps 712 mmHg 77%
    04:00 +5°C° 0.7 mm 10 mps 712 mmHg 76%
    05:00 +5°C° 0.2 mm 9 mps 713 mmHg 75%
    06:00 +3°C° 0.2 mm 9 mps 713 mmHg 74%
    07:00 +4°C° 0.2 mm 8 mps 714 mmHg 73%
    08:00 +3°C° 0.1 mm 9 mps 714 mmHg 68%
    09:00 +3°C° 0.1 mm 9 mps 715 mmHg 64%
    10:00 +3°C° 0.1 mm 10 mps 716 mmHg 59%
    11:00 +5°C° 0.1 mm 10 mps 716 mmHg 57%
    12:00 +5°C° 0.1 mm 10 mps 717 mmHg 55%
    13:00 +5°C° 0.1 mm 9 mps 717 mmHg 53%
    14:00 +5°C° 0 mm 9 mps 718 mmHg 54%
    15:00 +4°C° 0 mm 8 mps 718 mmHg 55%
    16:00 +4°C° 0 mm 7 mps 719 mmHg 55%
    17:00 +3°C° 0 mm 6 mps 719 mmHg 58%
    18:00 +3°C° 0 mm 6 mps 720 mmHg 62%
    19:00 +2°C° 0 mm 5 mps 720 mmHg 65%
    20:00 +2°C° 0 mm 5 mps 721 mmHg 68%
    21:00 +1°C° 0 mm 4 mps 721 mmHg 70%
    22:00 +1°C° 0 mm 4 mps 721 mmHg 73%
    23:00 +1°C° 0 mm 4 mps 721 mmHg 75%

    Day after tomorrow, 25 October, Thursday

    Time Temperature Precipitation Wind Pressure Humidity
    00:00 +1°C° 0 mm 4 mps 721 mmHg 77%
    01:00 0°C° 0 mm 4 mps 721 mmHg 80%
    02:00 +1°C° 0.1 mm 4 mps 720 mmHg 80%
    03:00 +3°C° 0.1 mm 4 mps 720 mmHg 81%
    04:00 +4°C° 0.1 mm 4 mps 719 mmHg 82%
    05:00 +5°C° 0.4 mm 5 mps 719 mmHg 84%
    06:00 +5°C° 0.4 mm 6 mps 718 mmHg 86%
    07:00 +6°C° 0.4 mm 7 mps 718 mmHg 88%
    08:00 +8°C° 0.1 mm 7 mps 717 mmHg 85%
    09:00 +7°C° 0.1 mm 8 mps 717 mmHg 82%
    10:00 +9°C° 0.1 mm 8 mps 717 mmHg 80%
    11:00 +9°C° 0.1 mm 8 mps 717 mmHg 78%
    12:00 +9°C° 0.1 mm 8 mps 717 mmHg 76%
    13:00 +8°C° 0.1 mm 9 mps 717 mmHg 74%
    14:00 +9°C° 0 mm 8 mps 717 mmHg 75%
    15:00 +9°C° 0 mm 8 mps 717 mmHg 77%
    16:00 +9°C° 0 mm 7 mps 717 mmHg 78%
    17:00 +9°C° 0 mm 7 mps 717 mmHg 79%
    18:00 +9°C° 0 mm 7 mps 717 mmHg 80%
    19:00 +9°C° 0 mm 6 mps 717 mmHg 82%
    20:00 +8°C° 0.1 mm 6 mps 717 mmHg 82%
    21:00 +8°C° 0.1 mm 6 mps 717 mmHg 83%
    22:00 +8°C° 0.1 mm 6 mps 718 mmHg 84%
    23:00 +8°C° 0.2 mm 5 mps 718 mmHg 84%

    26 October, Friday

    Time Temperature Precipitation Wind Pressure Humidity
    00:00 +8°C° 0.2 mm 5 mps 718 mmHg 85%
    01:00 +7°C° 0.2 mm 5 mps 718 mmHg 85%
    02:00 +7°C° 0 mm 4 mps 718 mmHg 86%
    03:00 +8°C° 0 mm 3 mps 717 mmHg 88%
    04:00 +7°C° 0 mm 3 mps 717 mmHg 89%
    05:00 +7°C° 0 mm 3 mps 717 mmHg 89%
    06:00 +7°C° 0 mm 3 mps 717 mmHg 90%
    07:00 +7°C° 0 mm 3 mps 717 mmHg 90%
    08:00 +8°C° 0 mm 3 mps 716 mmHg 85%
    09:00 +8°C° 0 mm 4 mps 716 mmHg 81%
    10:00 +10°C° 0 mm 4 mps 716 mmHg 76%
    11:00 +9°C° 0 mm 5 mps 715 mmHg 72%
    12:00 +10°C° 0 mm 6 mps 715 mmHg 69%
    13:00 +10°C° 0 mm 6 mps 714 mmHg 66%
    14:00 +9°C° 0 mm 6 mps 714 mmHg 66%
    15:00 +9°C° 0 mm 5 mps 713 mmHg 67%
    16:00 +9°C° 0 mm 5 mps 713 mmHg 68%
    17:00 +8°C° 0 mm 5 mps 713 mmHg 70%
    18:00 +7°C° 0 mm 5 mps 713 mmHg 72%
    19:00 +7°C° 0 mm 5 mps 713 mmHg 74%
    20:00 +6°C° 0 mm 5 mps 713 mmHg 74%
    21:00 +6°C° 0 mm 5 mps 713 mmHg 74%
    22:00 +6°C° 0 mm 5 mps 713 mmHg 74%
    23:00 +5°C° 0 mm 5 mps 713 mmHg 73%

    27 October, Saturday

    Time Temperature Precipitation Wind Pressure Humidity
    00:00 +4°C° 0 mm 6 mps 713 mmHg 73%
    01:00 +3°C° 0 mm 6 mps 714 mmHg 72%
    02:00 +3°C° 0 mm 5 mps 714 mmHg 72%
    03:00 +2°C° 0 mm 5 mps 714 mmHg 73%
    04:00 +2°C° 0 mm 5 mps 714 mmHg 73%
    05:00 +1°C° 0 mm 5 mps 714 mmHg 74%
    06:00 +1°C° 0 mm 5 mps 714 mmHg 74%
    07:00 +1°C° 0 mm 5 mps 715 mmHg 75%
    08:00 +2°C° 0 mm 5 mps 715 mmHg 71%
    09:00 +3°C° 0 mm 5 mps 715 mmHg 66%
    10:00 +5°C° 0 mm 5 mps 715 mmHg 62%
    11:00 +5°C° 0 mm 4 mps 716 mmHg 60%
    12:00 +6°C° 0 mm 4 mps 716 mmHg 57%
    13:00 +7°C° 0 mm 3 mps 716 mmHg 54%
    14:00 +7°C° 0 mm 3 mps 716 mmHg 56%
    15:00 +7°C° 0 mm 2 mps 716 mmHg 59%
    16:00 +6°C° 0 mm 2 mps 716 mmHg 61%
    17:00 +7°C° 0 mm 1 mps 716 mmHg 63%
    18:00 +6°C° 0 mm 1 mps 716 mmHg 65%
    19:00 +6°C° 0 mm 1 mps 717 mmHg 68%
    20:00 +5°C° 0 mm 1 mps 717 mmHg 69%
    21:00 +4°C° 0 mm 0 mps 717 mmHg 70%
    22:00 +4°C° 0 mm 0 mps 717 mmHg 71%
    23:00 +5°C° 0 mm 1 mps 717 mmHg 72%

    28 October, Sunday

    Time Temperature Precipitation Wind Pressure Humidity
    00:00 +5°C° 0 mm 1 mps 717 mmHg 74%
    01:00 +5°C° 0 mm 1 mps 717 mmHg 75%
    02:00 +4°C° 0.1 mm 1 mps 716 mmHg 77%
    03:00 +3°C° 0.1 mm 2 mps 716 mmHg 79%
    04:00 +3°C° 0.1 mm 2 mps 716 mmHg 80%
    05:00 +3°C° 0.1 mm 2 mps 716 mmHg 81%
    06:00 +2°C° 0.1 mm 3 mps 716 mmHg 82%
    07:00 +1°C° 0.1 mm 4 mps 716 mmHg 83%
    08:00 +1°C° 0.6 mm 4 mps 716 mmHg 82%
    09:00 +1°C° 0.6 mm 5 mps 716 mmHg 82%
    10:00 +2°C° 0.6 mm 6 mps 716 mmHg 81%
    11:00 +1°C° 1.3 mm 6 mps 716 mmHg 82%
    12:00 0°C° 1.3 mm 7 mps 715 mmHg 82%
    13:00 0°C° 1.3 mm 7 mps 715 mmHg 83%
    14:00 0°C° 1.2 mm 7 mps 715 mmHg 84%
    15:00 0°C° 1.2 mm 7 mps 715 mmHg 85%
    16:00 -1°C° 1.2 mm 7 mps 715 mmHg 86%
    17:00 -1°C° 0.4 mm 7 mps 715 mmHg 86%
    18:00 -1°C° 0.4 mm 7 mps 715 mmHg 87%
    19:00 -1°C° 0.4 mm 7 mps 715 mmHg 87%
    20:00 -1°C° 1.4 mm 7 mps 715 mmHg 88%
    21:00 -1°C° 1.4 mm 6 mps 714 mmHg 89%
    22:00 -1°C° 1.4 mm 6 mps 714 mmHg 90%
    23:00 -1°C° 2.4 mm 6 mps 714 mmHg 90%

    29 October, Monday

    Time Temperature Precipitation Wind Pressure Humidity
    00:00 -1°C° 2.4 mm 6 mps 713 mmHg 91%
    01:00 -1°C° 2.4 mm 6 mps 713 mmHg 92%
    02:00 -1°C° 1.8 mm 6 mps 712 mmHg 92%
    03:00 -1°C° 1.8 mm 7 mps 712 mmHg 91%
    04:00 -1°C° 1.8 mm 7 mps 711 mmHg 91%
    05:00 -1°C° 1.2 mm 7 mps 711 mmHg 92%
    06:00 -1°C° 1.2 mm 6 mps 711 mmHg 92%
    07:00 -1°C° 1.2 mm 6 mps 711 mmHg 92%
    08:00 -1°C° 1.5 mm 6 mps 710 mmHg 92%
    09:00 -1°C° 1.5 mm 6 mps 710 mmHg 92%
    10:00 -1°C° 1.5 mm 6 mps 710 mmHg 92%
    11:00 0°C° 1.4 mm 5 mps 710 mmHg 93%
    12:00 0°C° 1.4 mm 5 mps 710 mmHg 93%
    13:00 0°C° 1.4 mm 5 mps 710 mmHg 94%
    14:00 0°C° 1.2 mm 4 mps 709 mmHg 94%
    15:00 0°C° 1.2 mm 4 mps 709 mmHg 94%
    16:00 0°C° 1.2 mm 4 mps 709 mmHg 94%
    17:00 +1°C° 0.7 mm 3 mps 709 mmHg 95%
    18:00 +1°C° 0.7 mm 3 mps 709 mmHg 95%
    19:00 +1°C° 0.7 mm 3 mps 709 mmHg 95%
    20:00 +1°C° 0.1 mm 3 mps 709 mmHg 96%
    21:00 +3°C° 0.1 mm 2 mps 708 mmHg 96%
    22:00 +3°C° 0.1 mm 2 mps 708 mmHg 97%
    23:00 +3°C° 0.1 mm 2 mps 708 mmHg 97%
    Show more